• In Slovakia
  • List of Countries
  • For 7 days
  • Water Temperature
  • Satellite Maps
  • Weather Map
  • Weather Widgets
  • user-avatar
    Login

    Hourly Weather Verovka

    Today, 23 September, Sunday

    Time Temperature Precipitation Wind Pressure Humidity
    00:00 +13°C° 0.1 mm 2 mps 734 mmHg 96%
    01:00 +13°C° 0.1 mm 2 mps 734 mmHg 96%
    02:00 +13°C° 0 mm 2 mps 734 mmHg 96%
    03:00 +13°C° 0 mm 2 mps 734 mmHg 96%
    04:00 +13°C° 0 mm 1 mps 735 mmHg 96%
    05:00 +13°C° 0 mm 1 mps 735 mmHg 96%
    06:00 +13°C° 0 mm 1 mps 735 mmHg 96%
    07:00 +13°C° 0 mm 1 mps 735 mmHg 96%
    08:00 +14°C° 0 mm 1 mps 735 mmHg 91%
    09:00 +16°C° 0 mm 1 mps 735 mmHg 86%
    10:00 +19°C° 0 mm 1 mps 735 mmHg 81%
    11:00 +20°C° 0 mm 1 mps 735 mmHg 77%
    12:00 +21°C° 0 mm 1 mps 735 mmHg 73%
    13:00 +22°C° 0 mm 1 mps 735 mmHg 69%
    14:00 +22°C° 0 mm 1 mps 735 mmHg 68%
    15:00 +22°C° 0 mm 1 mps 735 mmHg 67%
    16:00 +21°C° 0 mm 2 mps 735 mmHg 66%
    17:00 +20°C° 0 mm 2 mps 734 mmHg 72%
    18:00 +18°C° 0 mm 2 mps 734 mmHg 78%
    19:00 +17°C° 0 mm 2 mps 734 mmHg 84%
    20:00 +16°C° 0 mm 2 mps 734 mmHg 85%
    21:00 +16°C° 0 mm 2 mps 733 mmHg 87%
    22:00 +15°C° 0 mm 2 mps 733 mmHg 89%
    23:00 +14°C° 0 mm 3 mps 733 mmHg 89%

    Tomorrow, 24 September, Monday

    Time Temperature Precipitation Wind Pressure Humidity
    00:00 +14°C° 0 mm 3 mps 733 mmHg 90%
    01:00 +13°C° 0 mm 3 mps 733 mmHg 91%
    02:00 +13°C° 0 mm 3 mps 733 mmHg 91%
    03:00 +13°C° 0 mm 3 mps 733 mmHg 91%
    04:00 +13°C° 0 mm 3 mps 732 mmHg 91%
    05:00 +13°C° 0 mm 3 mps 732 mmHg 89%
    06:00 +12°C° 0 mm 3 mps 732 mmHg 87%
    07:00 +12°C° 0 mm 4 mps 732 mmHg 85%
    08:00 +14°C° 0 mm 4 mps 732 mmHg 74%
    09:00 +16°C° 0 mm 5 mps 732 mmHg 62%
    10:00 +19°C° 0 mm 6 mps 732 mmHg 51%
    11:00 +18°C° 0 mm 7 mps 731 mmHg 47%
    12:00 +20°C° 0 mm 7 mps 731 mmHg 44%
    13:00 +21°C° 0 mm 7 mps 731 mmHg 40%
    14:00 +21°C° 0 mm 6 mps 731 mmHg 43%
    15:00 +21°C° 0 mm 5 mps 730 mmHg 45%
    16:00 +20°C° 0 mm 4 mps 730 mmHg 48%
    17:00 +19°C° 0 mm 4 mps 730 mmHg 50%
    18:00 +17°C° 0 mm 4 mps 730 mmHg 53%
    19:00 +16°C° 0 mm 3 mps 730 mmHg 55%
    20:00 +14°C° 0 mm 3 mps 730 mmHg 59%
    21:00 +14°C° 0 mm 2 mps 730 mmHg 64%
    22:00 +14°C° 0 mm 2 mps 730 mmHg 68%
    23:00 +13°C° 0 mm 2 mps 730 mmHg 72%

    Day after tomorrow, 25 September, Tuesday

    Time Temperature Precipitation Wind Pressure Humidity
    00:00 +13°C° 0 mm 2 mps 730 mmHg 77%
    01:00 +13°C° 0 mm 2 mps 730 mmHg 81%
    02:00 +13°C° 0 mm 2 mps 730 mmHg 84%
    03:00 +12°C° 0 mm 2 mps 730 mmHg 87%
    04:00 +12°C° 0 mm 2 mps 730 mmHg 90%
    05:00 +12°C° 0 mm 2 mps 730 mmHg 91%
    06:00 +10°C° 0 mm 2 mps 730 mmHg 92%
    07:00 +10°C° 0 mm 2 mps 730 mmHg 94%
    08:00 +11°C° 0 mm 3 mps 730 mmHg 88%
    09:00 +12°C° 0 mm 3 mps 730 mmHg 83%
    10:00 +13°C° 0 mm 4 mps 730 mmHg 77%
    11:00 +13°C° 0 mm 5 mps 730 mmHg 73%
    12:00 +14°C° 0 mm 5 mps 730 mmHg 68%
    13:00 +15°C° 0 mm 5 mps 730 mmHg 63%
    14:00 +15°C° 0 mm 5 mps 730 mmHg 61%
    15:00 +15°C° 0 mm 5 mps 730 mmHg 58%
    16:00 +16°C° 0 mm 5 mps 730 mmHg 56%
    17:00 +15°C° 0 mm 5 mps 730 mmHg 57%
    18:00 +14°C° 0 mm 4 mps 730 mmHg 59%
    19:00 +13°C° 0 mm 4 mps 730 mmHg 60%
    20:00 +13°C° 0 mm 4 mps 730 mmHg 58%
    21:00 +13°C° 0 mm 4 mps 729 mmHg 55%
    22:00 +13°C° 0 mm 5 mps 729 mmHg 53%
    23:00 +13°C° 0 mm 5 mps 729 mmHg 51%

    26 September, Wednesday

    Time Temperature Precipitation Wind Pressure Humidity
    00:00 +13°C° 0 mm 5 mps 729 mmHg 49%
    01:00 +13°C° 0 mm 6 mps 729 mmHg 47%
    02:00 +13°C° 0 mm 6 mps 729 mmHg 48%
    03:00 +13°C° 0 mm 6 mps 730 mmHg 49%
    04:00 +13°C° 0 mm 5 mps 730 mmHg 49%
    05:00 +13°C° 0 mm 5 mps 730 mmHg 55%
    06:00 +12°C° 0 mm 4 mps 731 mmHg 62%
    07:00 +12°C° 0 mm 4 mps 731 mmHg 68%
    08:00 +12°C° 0 mm 4 mps 731 mmHg 68%
    09:00 +13°C° 0 mm 4 mps 732 mmHg 67%
    10:00 +14°C° 0 mm 5 mps 732 mmHg 67%
    11:00 +13°C° 0.2 mm 5 mps 732 mmHg 69%
    12:00 +12°C° 0.2 mm 4 mps 733 mmHg 72%
    13:00 +12°C° 0.2 mm 4 mps 733 mmHg 75%
    14:00 +11°C° 0.9 mm 3 mps 733 mmHg 78%
    15:00 +10°C° 0.9 mm 3 mps 733 mmHg 80%
    16:00 +9°C° 0.9 mm 3 mps 734 mmHg 83%
    17:00 +9°C° 0.3 mm 3 mps 734 mmHg 85%
    18:00 +9°C° 0.3 mm 2 mps 734 mmHg 86%
    19:00 +8°C° 0.3 mm 2 mps 734 mmHg 88%
    20:00 +8°C° 0.1 mm 2 mps 735 mmHg 88%
    21:00 +8°C° 0.1 mm 2 mps 735 mmHg 89%
    22:00 +8°C° 0.1 mm 3 mps 735 mmHg 89%
    23:00 +8°C° 0.2 mm 2 mps 735 mmHg 90%

    27 September, Thursday

    Time Temperature Precipitation Wind Pressure Humidity
    00:00 +8°C° 0.2 mm 2 mps 735 mmHg 90%
    01:00 +8°C° 0.2 mm 2 mps 735 mmHg 91%
    02:00 +7°C° 0.1 mm 2 mps 735 mmHg 91%
    03:00 +7°C° 0.1 mm 2 mps 735 mmHg 91%
    04:00 +7°C° 0.1 mm 2 mps 735 mmHg 90%
    05:00 +7°C° 0 mm 2 mps 735 mmHg 91%
    06:00 +6°C° 0 mm 2 mps 735 mmHg 91%
    07:00 +6°C° 0 mm 2 mps 735 mmHg 92%
    08:00 +7°C° 0 mm 3 mps 735 mmHg 85%
    09:00 +8°C° 0 mm 3 mps 735 mmHg 79%
    10:00 +8°C° 0 mm 4 mps 735 mmHg 72%
    11:00 +8°C° 0 mm 4 mps 734 mmHg 70%
    12:00 +9°C° 0 mm 5 mps 734 mmHg 67%
    13:00 +9°C° 0 mm 5 mps 734 mmHg 65%
    14:00 +9°C° 0 mm 5 mps 733 mmHg 65%
    15:00 +9°C° 0 mm 5 mps 733 mmHg 65%
    16:00 +9°C° 0 mm 5 mps 733 mmHg 65%
    17:00 +8°C° 0 mm 5 mps 732 mmHg 68%
    18:00 +8°C° 0 mm 4 mps 732 mmHg 70%
    19:00 +7°C° 0 mm 4 mps 732 mmHg 73%
    20:00 +7°C° 0 mm 4 mps 731 mmHg 74%
    21:00 +6°C° 0 mm 5 mps 731 mmHg 75%
    22:00 +6°C° 0 mm 5 mps 730 mmHg 76%
    23:00 +6°C° 0 mm 5 mps 730 mmHg 74%

    28 September, Friday

    Time Temperature Precipitation Wind Pressure Humidity
    00:00 +5°C° 0 mm 6 mps 729 mmHg 72%
    01:00 +5°C° 0 mm 6 mps 729 mmHg 70%
    02:00 +5°C° 0 mm 6 mps 728 mmHg 66%
    03:00 +5°C° 0 mm 7 mps 728 mmHg 63%
    04:00 +5°C° 0 mm 7 mps 727 mmHg 60%
    05:00 +4°C° 0.2 mm 7 mps 727 mmHg 64%
    06:00 +4°C° 0.2 mm 7 mps 726 mmHg 68%
    07:00 +4°C° 0.2 mm 8 mps 726 mmHg 72%
    08:00 +4°C° 0.2 mm 8 mps 726 mmHg 74%
    09:00 +4°C° 0.2 mm 8 mps 726 mmHg 77%
    10:00 +4°C° 0.2 mm 8 mps 726 mmHg 80%
    11:00 +5°C° 0 mm 8 mps 726 mmHg 76%
    12:00 +6°C° 0 mm 8 mps 727 mmHg 72%
    13:00 +7°C° 0 mm 8 mps 727 mmHg 68%
    14:00 +7°C° 0.1 mm 8 mps 727 mmHg 65%
    15:00 +9°C° 0.1 mm 8 mps 727 mmHg 63%
    16:00 +9°C° 0.1 mm 8 mps 727 mmHg 60%
    17:00 +8°C° 0 mm 6 mps 727 mmHg 65%
    18:00 +7°C° 0 mm 5 mps 728 mmHg 69%
    19:00 +6°C° 0 mm 4 mps 728 mmHg 74%
    20:00 +5°C° 0 mm 4 mps 728 mmHg 76%
    21:00 +5°C° 0 mm 4 mps 728 mmHg 78%
    22:00 +4°C° 0 mm 4 mps 728 mmHg 80%
    23:00 +4°C° 0 mm 4 mps 728 mmHg 79%
    Show more